Hourly Weather Acatlan de Osorio

Today, 29 July, Thursday

Time Temperature Precipitation Wind Pressure Humidity
00:00 +21°C° 0 mm 2 mps 651 mmHg 70%
01:00 +20°C° 0 mm 2 mps 651 mmHg 75%
02:00 +19°C° 0 mm 2 mps 651 mmHg 79%
03:00 +19°C° 0 mm 2 mps 651 mmHg 81%
04:00 +18°C° 0 mm 2 mps 651 mmHg 82%
05:00 +18°C° 0 mm 2 mps 651 mmHg 84%
06:00 +20°C° 0 mm 2 mps 652 mmHg 74%
07:00 +23°C° 0 mm 2 mps 653 mmHg 65%
08:00 +25°C° 0 mm 2 mps 653 mmHg 56%
09:00 +27°C° 0 mm 2 mps 653 mmHg 49%
10:00 +29°C° 0 mm 3 mps 653 mmHg 41%
11:00 +31°C° 0 mm 3 mps 653 mmHg 34%
12:00 +33°C° 0 mm 4 mps 653 mmHg 32%
13:00 +33°C° 0 mm 5 mps 652 mmHg 30%
14:00 +34°C° 0 mm 6 mps 652 mmHg 28%
15:00 +33°C° 0 mm 6 mps 651 mmHg 31%
16:00 +32°C° 0 mm 7 mps 651 mmHg 35%
17:00 +30°C° 0 mm 7 mps 651 mmHg 38%
18:00 +28°C° 0 mm 6 mps 651 mmHg 45%
19:00 +25°C° 0 mm 4 mps 651 mmHg 52%
20:00 +22°C° 0 mm 3 mps 651 mmHg 59%
21:00 +22°C° 0 mm 3 mps 651 mmHg 61%
22:00 +23°C° 0 mm 2 mps 652 mmHg 62%
23:00 +23°C° 0 mm 2 mps 652 mmHg 64%

Tomorrow, 30 July, Friday

Time Temperature Precipitation Wind Pressure Humidity
00:00 +23°C° 0 mm 2 mps 652 mmHg 65%
01:00 +21°C° 0 mm 2 mps 652 mmHg 67%
02:00 +21°C° 0 mm 2 mps 652 mmHg 69%
03:00 +20°C° 0 mm 2 mps 651 mmHg 71%
04:00 +20°C° 0 mm 2 mps 651 mmHg 73%
05:00 +19°C° 0 mm 2 mps 651 mmHg 75%
06:00 +21°C° 0 mm 2 mps 652 mmHg 69%
07:00 +24°C° 0 mm 2 mps 653 mmHg 63%
08:00 +25°C° 0 mm 2 mps 653 mmHg 57%
09:00 +27°C° 0 mm 4 mps 653 mmHg 50%
10:00 +29°C° 0 mm 5 mps 653 mmHg 43%
11:00 +32°C° 0 mm 6 mps 653 mmHg 37%
12:00 +32°C° 0 mm 7 mps 653 mmHg 34%
13:00 +33°C° 0 mm 8 mps 653 mmHg 31%
14:00 +33°C° 0 mm 8 mps 652 mmHg 28%
15:00 +32°C° 0 mm 8 mps 652 mmHg 33%
16:00 +29°C° 0 mm 8 mps 652 mmHg 37%
17:00 +28°C° 0 mm 8 mps 652 mmHg 41%
18:00 +27°C° 0 mm 8 mps 652 mmHg 46%
19:00 +24°C° 0 mm 7 mps 653 mmHg 50%
20:00 +23°C° 0 mm 6 mps 653 mmHg 55%
21:00 +22°C° 0 mm 5 mps 653 mmHg 56%
22:00 +22°C° 0 mm 3 mps 653 mmHg 56%
23:00 +23°C° 0 mm 2 mps 653 mmHg 57%

Day after tomorrow, 31 July, Saturday

Time Temperature Precipitation Wind Pressure Humidity
00:00 +21°C° 0 mm 2 mps 653 mmHg 58%
01:00 +21°C° 0 mm 2 mps 653 mmHg 60%
02:00 +20°C° 0 mm 2 mps 653 mmHg 61%
03:00 +19°C° 0 mm 2 mps 652 mmHg 64%
04:00 +19°C° 0 mm 2 mps 652 mmHg 66%
05:00 +18°C° 0 mm 2 mps 652 mmHg 69%
06:00 +20°C° 0 mm 2 mps 653 mmHg 60%
07:00 +23°C° 0 mm 2 mps 654 mmHg 52%
08:00 +25°C° 0 mm 2 mps 654 mmHg 43%
09:00 +27°C° 0 mm 3 mps 654 mmHg 40%
10:00 +29°C° 0 mm 3 mps 654 mmHg 37%
11:00 +32°C° 0 mm 4 mps 654 mmHg 34%
12:00 +32°C° 0 mm 5 mps 654 mmHg 34%
13:00 +33°C° 0 mm 6 mps 654 mmHg 33%
14:00 +34°C° 0 mm 7 mps 653 mmHg 32%
15:00 +32°C° 0 mm 7 mps 653 mmHg 35%
16:00 +30°C° 0 mm 7 mps 653 mmHg 37%
17:00 +29°C° 0 mm 8 mps 652 mmHg 40%
18:00 +27°C° 0 mm 7 mps 653 mmHg 45%
19:00 +24°C° 0 mm 6 mps 653 mmHg 51%
20:00 +22°C° 0 mm 5 mps 653 mmHg 57%
21:00 +21°C° 0 mm 4 mps 653 mmHg 63%
22:00 +20°C° 0 mm 3 mps 653 mmHg 68%
23:00 +19°C° 0 mm 2 mps 653 mmHg 74%

1 August, Sunday

Time Temperature Precipitation Wind Pressure Humidity
00:00 +18°C° 0 mm 2 mps 653 mmHg 76%
01:00 +18°C° 0 mm 2 mps 652 mmHg 78%
02:00 +18°C° 0 mm 2 mps 652 mmHg 80%
03:00 +17°C° 0 mm 2 mps 652 mmHg 81%
04:00 +17°C° 0 mm 2 mps 652 mmHg 81%
05:00 +17°C° 0 mm 2 mps 653 mmHg 82%
06:00 +19°C° 0 mm 2 mps 653 mmHg 72%
07:00 +23°C° 0 mm 1 mps 654 mmHg 61%
08:00 +25°C° 0 mm 1 mps 655 mmHg 51%
09:00 +27°C° 0 mm 2 mps 655 mmHg 45%
10:00 +29°C° 0 mm 2 mps 654 mmHg 38%
11:00 +31°C° 0 mm 2 mps 654 mmHg 32%
12:00 +33°C° 0 mm 3 mps 654 mmHg 32%
13:00 +34°C° 0 mm 4 mps 653 mmHg 31%
14:00 +35°C° 0 mm 5 mps 653 mmHg 31%
15:00 +33°C° 0 mm 5 mps 652 mmHg 35%
16:00 +32°C° 0 mm 6 mps 652 mmHg 39%
17:00 +30°C° 0 mm 6 mps 651 mmHg 43%
18:00 +27°C° 0.4 mm 5 mps 652 mmHg 53%
19:00 +25°C° 0.4 mm 3 mps 652 mmHg 64%
20:00 +22°C° 0.4 mm 1 mps 652 mmHg 74%
21:00 +22°C° 0.2 mm 1 mps 652 mmHg 76%
22:00 +21°C° 0.2 mm 2 mps 653 mmHg 78%
23:00 +20°C° 0.2 mm 2 mps 653 mmHg 80%

2 August, Monday

Time Temperature Precipitation Wind Pressure Humidity
00:00 +21°C° 0 mm 1 mps 652 mmHg 82%
01:00 +20°C° 0 mm 1 mps 652 mmHg 83%
02:00 +20°C° 0 mm 1 mps 652 mmHg 84%
03:00 +20°C° 0 mm 1 mps 652 mmHg 85%
04:00 +20°C° 0 mm 1 mps 652 mmHg 86%
05:00 +20°C° 0 mm 1 mps 652 mmHg 86%
06:00 +21°C° 0 mm 1 mps 653 mmHg 79%
07:00 +23°C° 0 mm 1 mps 653 mmHg 71%
08:00 +23°C° 0 mm 0 mps 654 mmHg 64%
09:00 +27°C° 0 mm 1 mps 654 mmHg 57%
10:00 +28°C° 0 mm 1 mps 654 mmHg 49%
11:00 +30°C° 0 mm 2 mps 654 mmHg 42%
12:00 +30°C° 0.1 mm 2 mps 653 mmHg 42%
13:00 +30°C° 0.1 mm 2 mps 652 mmHg 42%
14:00 +30°C° 0.1 mm 3 mps 652 mmHg 42%
15:00 +29°C° 0.2 mm 3 mps 652 mmHg 49%
16:00 +28°C° 0.2 mm 3 mps 651 mmHg 55%
17:00 +26°C° 0.2 mm 3 mps 651 mmHg 61%
18:00 +25°C° 1.4 mm 2 mps 651 mmHg 71%
19:00 +23°C° 1.4 mm 2 mps 652 mmHg 81%
20:00 +20°C° 1.4 mm 2 mps 652 mmHg 91%
21:00 +21°C° 3.7 mm 1 mps 652 mmHg 92%
22:00 +21°C° 3.7 mm 1 mps 653 mmHg 94%
23:00 +20°C° 3.7 mm 1 mps 653 mmHg 95%

3 August, Tuesday

Time Temperature Precipitation Wind Pressure Humidity
00:00 +18°C° 2.5 mm 0 mps 653 mmHg 95%
01:00 +18°C° 2.5 mm 0 mps 652 mmHg 94%
02:00 +18°C° 2.5 mm 0 mps 652 mmHg 94%
03:00 +20°C° 1.1 mm 1 mps 652 mmHg 93%
04:00 +20°C° 1.1 mm 1 mps 652 mmHg 92%
05:00 +20°C° 1.1 mm 1 mps 652 mmHg 92%
06:00 +21°C° 0.3 mm 1 mps 653 mmHg 89%
07:00 +21°C° 0.3 mm 1 mps 653 mmHg 85%
08:00 +21°C° 0.3 mm 1 mps 653 mmHg 82%
09:00 +23°C° 0 mm 1 mps 653 mmHg 75%
10:00 +24°C° 0 mm 1 mps 653 mmHg 68%
11:00 +26°C° 0 mm 1 mps 653 mmHg 61%
12:00 +27°C° 0 mm 1 mps 653 mmHg 57%
13:00 +28°C° 0 mm 2 mps 652 mmHg 52%
14:00 +29°C° 0 mm 2 mps 652 mmHg 48%
15:00 +29°C° 0.3 mm 2 mps 651 mmHg 51%
16:00 +28°C° 0.3 mm 2 mps 651 mmHg 55%
17:00 +27°C° 0.3 mm 2 mps 651 mmHg 58%
18:00 +26°C° 1.2 mm 2 mps 651 mmHg 66%
19:00 +24°C° 1.2 mm 2 mps 651 mmHg 74%
20:00 +23°C° 1.2 mm 2 mps 652 mmHg 83%
21:00 +21°C° 1 mm 2 mps 652 mmHg 85%
22:00 +21°C° 1 mm 2 mps 652 mmHg 88%
23:00 +20°C° 1 mm 2 mps 652 mmHg 91%
Show more

We Need Your Consent

Meteoprog and our Service Providers may store and access personal data such as cookies, device identifiers or other similar technologies on your device and process such data to personalise content and ads, as well as provide social media features and to analyse the traffic.

  • Store and/or access information on your device

    Cookies, device identifiers or other information can be stored or accessed on your device for the purposes indicated above.

  • Personalised ads and content, ad and content measurement, audience insights, and products development

    Ads and content can be personalised based on a profile. More data can be added to better personalise ads and content. Ad and content performance can be measured. Insights about the audience who saw the ads and content can be derived. Such data can be used to develop or improve user’s experience, systems and software.

By clicking ‘I Agree’ you will allow the use of indicated cookies, device identifiers, web beacons or other similar technologies. Your settings can be changed in the browser on your device.

For certain purposes, legitimate interests may be relied on, rather than consent. You can read more about this in our Privacy and Cookie Policy.